Location: C?rm?zine?ti
(46.0167°N, 22.6333°E)
Time: 10:49:26
(UTC+00:00)

Daily predictions for brighter satellites

Satellite Brightness Start Highest point End
(mag) Time Altitude Azimuth Time Altitude Azimuth Time Altitude Azimuth
CZ-4C R/B 3.5 15:04:24 10° NNW 15:10:33 34° NE 15:17:42 10° E
NOSS 3-1 (A) 4.1 15:03:24 10° NW 15:10:49 71° NE 15:19:31 10° SE
NOSS 3-1 (C) 4.3 15:03:30 10° NW 15:11:01 83° SW 15:19:50 10° SSE
Cosmos 1092 Rocket 4.5 15:07:12 10° N 15:13:10 40° ENE 15:19:03 10° SE
Cosmos 2221 2.5 15:09:59 10° S 15:14:14 84° E 15:18:34 10° N
Cosmos 1805 Rocket 4.4 15:10:57 10° NNE 15:14:43 28° ENE 15:18:28 10° SE
Cosmos 1842 Rocket 3.6 15:14:20 10° S 15:18:47 81° E 15:23:18 10° N
SL-16 R/B 4.0 15:16:34 10° N 15:18:52 12° NE 15:21:09 10° ENE
Meteor 1-25 Rocket 4.4 15:15:51 10° N 15:21:16 49° ENE 15:26:40 10° SSE
Cosmos 2084 3.4 15:17:25 10° NW 15:21:44 77° NE 15:26:12 10° SE
Cosmos 2082 Rocket 3.3 15:19:02 10° SSE 15:23:33 25° ESE 15:28:05 10° NE
USA 306 4.1 15:19:56 10° WNW 15:23:39 28° N 15:27:22 10° NE
CORIOLIS 4.4 15:21:52 10° SE 15:27:01 48° ENE 15:32:14 10° N
SMAP 3.2 15:22:33 10° SE 15:27:02 50° ENE 15:31:33 10° N
ISS -3.1 15:25:22 10° WNW 15:28:36 40° NNE 15:31:50 10° E
NOAA 12 4.1 15:25:21 10° SSE 15:30:40 83° ENE 15:36:02 10° NNW
Cosmos 1939 Rocket 3.0 15:26:47 10° SSE 15:30:48 56° ENE 15:34:48 10° N
Meteor PRIRODA 3.7 15:27:50 10° SSE 15:31:28 85° WSW 15:35:07 10° NNW
Cosmos 44 4.5 15:28:12 10° NW 15:32:44 45° WSW 15:37:00 10° S
CZ-4B DEB 4.4 15:27:42 10° SE 15:32:57 47° ENE 15:38:12 10° N
Cosmos 2034 Rocket 4.0 15:30:50 10° S 15:37:00 87° E 15:43:12 10° N
Cosmos 540 Rocket 3.7 15:35:38 10° S 15:40:31 49° ESE 15:45:26 10° NNE
AQUARIUS 4.2 15:37:11 10° SSE 15:41:35 58° ENE 15:46:00 10° N
Cosmos 1602 3.8 15:38:16 10° N 15:42:03 51° ENE 15:45:49 10° SSE
USA 307 4.2 15:38:51 10° WNW 15:42:34 28° N 15:45:42 13° NE
ARGOS 4.0 15:39:19 10° ESE 15:43:46 27° ENE 15:48:13 10° N
COSMOS 2406 3.3 15:38:10 10° S 15:43:47 59° ESE 15:49:25 10° NNE
Cosmos 1833 Rocket 2.7 15:39:50 10° SSW 15:45:26 77° ESE 15:51:06 10° NNE
COSMO-SKYMED 1 3.8 15:46:11 11° NE 15:49:22 23° E 15:52:48 10° SE
SL-08 R/B 4.2 15:46:31 10° N 15:51:04 48° WNW 15:55:31 10° SW
ATLAS CENTAUR R/B 3.1 15:40:22 10° SW 15:51:16 85° SE 15:55:01 15° NE
Cosmos 1782 3.0 15:49:34 10° SSE 15:53:25 47° E 15:57:15 10° NNE
Cosmos 1818 4.5 15:49:49 10° NNW 15:54:33 28° NE 15:58:07 15° E
Cosmos 468 Rocket 4.1 15:49:36 10° SSW 15:54:45 78° WNW 16:00:00 10° NNE
Cosmos 1634 Rocket 4.1 15:51:34 10° S 15:57:46 62° E 16:04:00 10° NNE
Cosmos 1633 Rocket 3.8 15:54:08 10° NNE 15:57:58 29° ENE 16:01:47 10° SE
ATLAS CENTAUR R/B 4.0 15:56:17 10° NW 15:57:59 12° NNW 15:59:43 10° N
Cosmos 1898 Rocket 3.7 15:53:34 10° NNW 15:58:50 75° WSW 16:04:01 10° SSE
COSMOS 2455 3.0 15:53:59 10° SSW 15:59:50 57° ESE 16:05:04 13° NE
PAYLOAD B 4.2 15:56:59 10° SSE 16:02:31 65° ENE 16:08:05 10° N
Cosmos 2026 Rocket 3.9 15:57:31 10° N 16:03:42 76° E 16:09:45 10° SSE
Cosmos 1340 Rocket 4.4 16:00:37 10° NNW 16:04:26 39° W 16:08:14 10° SSW
CZ-2C R/B 3.1 15:59:51 10° NNE 16:04:38 36° E 16:09:22 10° SSE
CZ-2D R/B 3.2 16:01:06 10° SSE 16:04:53 62° ENE 16:08:40 10° N
CZ-2C R/B 4.3 16:00:28 10° S 16:05:06 42° W 16:09:39 10° NNW
USA 308 4.2 16:01:29 10° WNW 16:05:10 27° N 16:07:12 19° NE
CZ-4B R/B 3.3 16:00:15 10° SE 16:05:25 47° ENE 16:10:32 10° N
Meteor 2-14 Rocket 4.4 16:03:20 10° N 16:09:29 79° E 16:15:33 10° SSE
Cosmos 2360 4.5 16:04:13 10° NNW 16:09:57 74° WSW 16:15:38 10° SSE
Cosmos 1151 Rocket 3.4 16:07:07 10° SSE 16:11:10 41° E 16:14:34 14° NNE
Cosmos 1500 3.0 16:08:09 10° N 16:11:55 75° E 16:15:37 10° SSE
Okean O Rocket 2.0 16:09:42 10° SE 16:13:50 40° ENE 16:18:00 10° N
NOSS 2-2 (C) 4.3 16:08:50 10° NW 16:14:02 78° NE 16:21:21 10° SE
Lacrosse 5 rocket 2.3 16:10:38 10° NW 16:14:04 28° NNE 16:14:59 25° NE
USA 267 3.5 16:13:43 17° NE 16:18:55 63° NNW 16:25:21 10° WSW
Cosmos 1655 Rocket 4.5 16:15:19 10° N 16:21:12 37° ENE 16:27:01 10° SE
Meteor 1-26 Rocket 4.4 16:15:47 10° S 16:21:46 89° E 16:27:51 10° N
H-2A R/B 1.9 16:17:34 10° SSE 16:22:45 85° ENE 16:27:49 10° NNW
Cosmos 1666 Rocket 3.5 16:19:26 10° N 16:23:52 64° E 16:28:14 10° SSE
Cosmos 2360 Rocket 3.8 16:22:32 10° N 16:25:22 16° NNE 16:25:22 16° NNE
Cosmos 1470 Rocket 4.1 16:22:56 10° N 16:27:01 34° ENE 16:31:06 10° SE
Cosmos 1328 Rocket 3.8 16:24:15 10° SSE 16:28:29 45° E 16:30:23 28° NE
USA 305 4.0 16:28:19 10° NW 16:32:03 29° N 16:32:46 28° NNE
Meteor 2-21 Rocket 4.4 16:26:24 10° N 16:32:32 87° E 16:38:36 10° S
Landsat 5 3.7 16:32:08 40° ENE 16:32:41 42° E 16:36:28 10° S
Cosmos 841 Rocket 3.6 16:29:11 10° SSW 16:34:21 75° WNW 16:38:47 14° NNE
MOS 1-B 4.5 16:30:08 10° S 16:35:54 77° WSW 16:41:44 10° NNW
SKYMED 2 3.4 16:34:48 21° NNE 16:37:40 71° ESE 16:41:59 10° S
Cosmos 1666 2.5 16:37:39 10° N 16:41:24 90° SSW 16:45:06 10° S
Cosmos 1125 Rocket 3.9 16:36:57 10° N 16:41:50 37° ENE 16:41:53 37° ENE
SL-24 R/B - RUBIN 2 4.0 16:40:26 10° NW 16:44:53 61° WSW 16:49:08 10° SSE
Cosmos 2322 Rocket 3.0 16:41:28 10° N 16:45:58 31° NE 16:45:58 31° NE
ATLAS 2AS CENTAUR R/B 4.4 16:42:05 10° NW 16:47:23 20° N 16:50:01 17° NNE
Cosmos 1697 Rocket 4.4 16:43:06 10° NW 16:48:07 34° WSW 16:53:07 10° SSW
USA 234 4.0 16:46:21 10° SSE 16:52:42 52° SW 16:59:03 10° WNW
Cosmos 1980 Rocket 2.7 16:47:07 10° NNW 16:52:42 61° WSW 16:58:13 10° S
SL-08 RB Rocket 3.6 16:51:46 10° SSE 16:56:23 74° ENE 17:01:00 10° N
CZ-4C R/B 3.0 16:52:38 10° NW 16:59:55 86° SW 17:08:26 10° SSE
Cosmos 1812 3.7 16:56:44 10° SSW 17:00:27 47° WNW 17:02:43 21° NNW
deb Chang Zheng 4 4.3 16:59:29 10° S 17:03:41 54° W 17:07:56 10° NNW
USA 306 4.1 17:00:29 10° NW 17:03:35 31° N 17:03:35 31° N
SL-16 R/B 2.3 16:58:50 10° NNW 17:04:16 52° NE 17:04:16 52° NE
ISS -2.7 17:02:12 10° WNW 17:04:58 46° WSW 17:04:58 46° WSW
Cosmos 2082 Rocket 2.8 17:01:41 10° SW 17:07:15 55° WNW 17:10:43 23° N
Cosmos 44 Rocket 3.1 17:09:36 10° NW 17:14:23 82° N 17:14:23 82° N
Cosmos 2333 Rocket 4.2 17:10:58 10° N 17:12:26 15° N 17:12:26 15° N
Cosmos 2278 4.4 17:13:07 10° NW 17:18:39 53° WSW 17:24:08 10° S
USA 307 4.5 17:19:19 10° NW 17:21:44 27° NNW 17:21:44 27° NNW
ARGOS 4.0 17:18:32 10° S 17:23:45 49° W 17:29:00 10° NNW
COSMO-SKYMED 1 3.9 17:23:24 22° NNW 17:25:37 37° WNW 17:29:38 10° SW
Cosmos 1900 4.4 17:20:52 10° SW 17:25:34 73° WNW 17:25:34 73° WNW
DMSP B5D2-2 4.5 17:29:23 52° S 17:29:23 52° S 17:33:18 10° SSW
Cosmos 2298 Rocket 4.0 17:23:12 10° NNW 17:28:34 82° WSW 17:28:51 78° SSW
Cosmos 2266 Rocket 4.1 17:24:24 10° N 17:30:48 77° W 17:37:12 10° S
Cosmos 921 Rocket 4.3 17:30:17 10° SSW 17:32:43 33° SW 17:32:43 33° SW
ATLAS 5 CENTAUR R/B 3.4 17:29:34 10° NW 17:33:08 32° NW 17:33:08 32° NW
Meteor 2-15 Rocket 4.4 17:29:03 10° SSW 17:35:11 81° W 17:37:33 40° N
CZ-2C R/B 4.1 17:35:13 10° SSW 17:35:26 11° SSW 17:35:26 11° SSW
GEOS 3 Rocket 3.7 17:37:58 73° WNW 17:37:58 73° WNW 17:42:43 10° NW
Cosmos 1818 3.8 17:33:06 10° NW 17:38:33 65° WSW 17:38:50 64° SW
Cosmos 2219 Rocket 4.4 17:35:50 10° N 17:36:28 12° N 17:36:28 12° N
CZ-2C R/B 4.1 17:40:35 11° N 17:44:52 32° WNW 17:49:24 10° SW
COSMOS 2455 4.3 17:40:45 10° WSW 17:46:07 32° NW 17:48:14 26° N
Okean O Rocket 4.0 17:46:48 10° SW 17:50:19 23° W 17:53:52 10° NW
Lacrosse 5 rocket 3.8 17:49:27 10° NW 17:50:36 19° WNW 17:50:36 19° WNW
USA 267 4.2 18:01:04 36° N 18:01:17 36° N 18:07:06 10° WNW
Cosmos 2360 Rocket 4.1 18:05:25 10° NNW 18:07:09 21° NNW 18:07:09 21° NNW
Cosmos 2322 Rocket 4.0 18:25:19 10° NW 18:27:49 26° NW 18:27:49 26° NW
SL-16 R/B 4.3 18:43:30 10° NW 18:46:11 22° WNW 18:46:11 22° WNW
